Reflectivity
-20 -20 -20 -20 -20 -20 -20 -20 -20 -20 -20 -20 -20 -20 -20 -2 -2 1 -7 7 25 21 15 10 4 28 9
-20 -20 -20 -20 -20 -20 -20 -20 -20 -20 -20 -20 -20 -20 -20 -17 -20 3 -2 7 20 23 12 8 14 26 30
-20 -20 -20 -20 -20 -20 -20 -20 -20 -20 -20 -20 -20 -20 -20 -20 -20 -18 2 12 24 17 14 12 12 26 24
-20 -20 -20 -20 -20 -20 -20 -20 -20 -20 -20 -20 -20 -20 -20 -20 -20 -4 -2 16 16 3 8 13 13 30 32
-20 -20 -20 -20 -20 -20 -20 -20 -20 -20 -20 -20 -20 -20 -20 -20 -18 20 24 23 3 2 3 8 14 22 30
-20 -20 -20 -20 -20 -20 -20 -8 -20 -20 -17 -20 -20 -20 -20 -20 5 12 23 20 5 7 -4 10 8 18 13
-20 -20 -20 -20 -20 -16 -8 -20 -14 -18 1 -20 -20 -20 -20 -20 5 12 18 14 10 9 -3 -18 6 -1 1
-20 -20 -20 -20 -20 -19 -20 6 -20 -17 -20 -20 -20 -20 -20 -20 -0 -1 14 16 8 -3 -19 -20 -7 -3 3
-20 -20 -20 -20 -20 -20 -20 -20 -20 -20 -3 -8 -20 -20 -20 -20 -20 -9 4 9 10 -4 -8 -20 -20 -20 -20
-20 -20 -20 -20 -20 -20 -20 -18 -19 -20 -20 -15 -19 -12 -19 -20 -20 -20 -19 9 4 11 -0 -20 -20 -20 -20
-20 -20 -20 -20 -20 -20 -20 -10 -12 -20 -20 4 -14 -20 6 -2 -20 -20 -15 -7 -20 -20 -20 -20 -20 -20 -20
-20 -20 -20 -20 -20 -20 -20 -20 -20 -13 -16 -12 5 -1 -16 -20 -20 -20 -20 -20 -20 -20 -20 -20 -20 -20 -20
-20 -20 -20 -20 -20 -20 -20 -20 -20 -20 -19 -20 1 -20 -11 -3 -14 -20 6 -20 -20 -20 -20 -20 -20 -20 -20
-20 -20 -20 -20 -20 -20 -20 -6 -20 -20 -20 -16 -14 -11 -6 -20 -5 -20 4 -2 -20 -20 -20 -20 -20 -20 -20
-20 -20 -20 -20 -20 -20 -20 -20 -20 -20 -20 -20 -20 -20 -20 -11 -15 -12 -9 -20 -20 -20 -20 -20 -20 -20 -20
-20 -20 -20 -20 -20 -20 -20 -20 -20 -20 -20 -20 -20 -20 -20 -20 -15 -20 -3 -20 -20 -20 -20 -20 -20 -20 -20
-20 -20 -20 -20 -19 -20 -20 -10 -20 -20 -19 -20 -20 -20 -20 -20 -18 -20 -20 -17 -19 -20 -20 -20 -20 -20 -20
Wind_Speed
5 8 9 9 9 9 10 10 10 23 25 28 27 29 30 30 30 32 33 35 33 33 33 35 41 49 35
8 6 8 8 9 11 9 9 11 18 26 26 25 29 29 30 29 31 31 33 27 27 30 33 37 44 49
7 6 6 7 8 8 9 10 10 18 22 21 28 27 28 28 29 29 32 31 25 25 29 32 34 38 41
5 6 6 6 6 9 9 9 11 11 11 19 23 25 25 26 26 28 31 25 21 25 27 29 31 32 34
5 5 6 7 9 9 10 10 11 8 9 10 9 10 11 18 20 29 20 21 22 25 27 28 28 29 30
5 6 7 8 8 9 9 11 10 4 12 11 9 9 10 10 22 25 23 21 21 23 25 26 26 27 28
6 6 8 9 10 11 10 11 11 10 10 10 6 9 10 10 17 24 25 19 20 21 22 23 26 27 27
5 7 7 8 9 9 10 10 10 8 10 5 8 9 10 8 13 22 21 18 19 21 21 21 21 24 26
8 11 12 12 11 7 7 9 9 9 3 6 6 9 7 4 5 18 17 20 19 20 21 22 18 18 15
5 7 7 7 12 7 7 7 8 6 3 8 6 7 5 2 6 6 5 13 15 20 21 22 21 7 7
3 3 4 4 5 5 6 6 6 6 10 7 4 6 3 7 3 3 3 4 4 7 14 17 19 15 6
3 3 4 5 6 7 9 8 6 9 9 6 5 6 5 7 6 3 2 3 3 3 4 10 14 17 19
4 4 4 6 8 7 7 8 5 7 6 2 5 6 5 6 6 4 4 2 2 2 3 4 4 3 5
4 5 6 6 7 7 7 7 6 5 6 5 5 5 6 6 6 7 1 2 3 2 2 3 4 4 4
4 5 6 7 8 7 6 6 5 6 7 7 8 8 7 7 6 2 1 1 1 2 3 2 4 4 5
4 5 6 7 7 8 7 6 5 6 5 5 8 7 5 4 6 4 0 1 0 1 2 3 3 4 4
5 5 6 6 9 7 7 8 7 6 4 4 4 4 5 6 1 5 3 0 0 1 2 2 2 2 4
Wind_Direction
334 333 332 332 336 343 330 329 330 329 330 329 330 336 333 334 336 336 339 337 349 347 356 351 352 340 346
317 325 326 334 333 334 329 329 322 322 328 327 332 333 333 337 336 342 339 338 347 1 7 3 4 358 5
301 311 317 328 333 323 325 322 316 322 326 326 331 332 335 336 345 342 335 333 342 20 15 13 12 9 14
298 307 322 338 328 327 328 327 324 326 322 332 324 332 335 342 344 339 332 338 28 25 19 19 17 17 22
305 316 327 337 339 337 325 327 332 316 338 319 326 327 333 345 346 343 28 20 30 26 18 23 22 25 28
314 322 321 333 342 332 327 333 329 302 324 321 332 329 333 341 350 350 1 23 30 27 22 27 26 30 32
296 318 326 341 340 328 326 320 309 318 319 316 326 331 333 335 351 355 355 15 25 31 25 22 24 30 34
311 318 326 325 322 322 317 314 310 311 322 300 338 331 327 325 346 0 357 21 31 29 24 25 26 26 29
324 320 319 321 330 325 327 326 324 322 351 338 332 322 312 306 347 5 5 10 30 33 25 21 26 27 26
326 321 322 327 335 335 328 314 328 325 358 336 335 351 315 304 339 4 352 4 22 29 26 24 26 16 14
301 315 337 345 330 324 307 298 301 283 308 331 322 318 290 308 315 344 357 348 8 9 11 18 27 37 16
335 340 335 325 317 308 294 286 274 274 303 298 288 308 298 302 298 341 346 3 352 1 8 17 28 25 33
349 326 321 309 312 306 300 297 297 296 293 259 277 296 290 279 285 296 319 31 3 5 3 17 16 359 18
332 317 318 320 323 326 319 318 323 321 319 322 263 292 296 293 302 301 263 332 17 9 359 17 7 14 19
321 325 324 325 325 322 317 315 317 318 327 332 333 310 268 267 294 303 325 117 30 18 30 28 17 22 31
325 322 321 327 324 329 325 315 319 311 312 334 336 330 319 206 248 302 359 45 61 27 22 40 48 11 37
316 316 325 325 332 325 328 317 311 311 316 335 328 320 325 315 247 54 336 94 186 63 35 37 80 22 31